Torna al catalogo

STARLINK-36997

AttivoComunicazioniVLEO
NORAD 68248·PAYLOAD·🇺🇸 United States

Lanciato Mar 17, 2026 da Vandenberg Space Force Base

Loading…

Prossimi Passaggi (prossime 24 ore)

TLE

AggiornatoSource: CelesTrak SupGP

Epoca: Sep 15, 2026, 04:03 UTC

1 68248C 26054S   26258.16923611  .00035178  00000+0  10395-2 0  2588
2 68248  53.1556 134.3879 0001194  87.7073 358.3191 15.34369769    11

Traccia STARLINK-36997 in tempo reale con AllMySat

Download on the App Store